PIA894 OPIS-WMKK

Flight info

Callsign PIA894
Flight time N/A
Altitude 33000
Route BOBAM J131 GOTKO G325 PURPA/K0919S1010 W112 VIKUP W191 RUSAT/K0900S1070 W191 DNC W565 BIGUX B330 UBKER/K0919S1040 G212 LUVEN/K0919S1070 G212 BOPTU/K0926S1040 G212 SGM/K0917S1100 A581 BIDRU/K0922S1070 A581 SAGAG/N0496F360 B218 VTN/N0498F350 R470 UDN Y21 ROT/N0497F360 W38 RAMEI W42 RYN/N0493F370 M644 TONIK Y25 PASVA Y514 EMPUR/N0497F360 G466 PULIP PULIP1H
Aircraft B77W/H-SDE1E2E3FGHIJ2J3J4J5M1RWXY/LB1D1

Departure

Time 2026-05-09 22:06
Airport Islamabad International Airport (OPIS)

Arrival

Time N/A
Airport Kuala Lumpur International Airport (WMKK)
Time Latitude Longitude Altitude Speed Heading
2026-05-09 22:01 33.55287 72.81992 1740 ft 16 kts 281°
2026-05-09 22:01 33.55307 72.81862 1738 ft 16 kts 280°
2026-05-09 22:01 33.55327 72.81732 1737 ft 16 kts 280°
2026-05-09 22:02 33.55347 72.81603 1742 ft 16 kts 281°
2026-05-09 22:02 33.55368 72.81473 1741 ft 16 kts 281°
2026-05-09 22:02 33.55391 72.81326 1739 ft 19 kts 280°
2026-05-09 22:02 33.55415 72.81170 1740 ft 19 kts 280°
2026-05-09 22:03 33.55439 72.81014 1740 ft 19 kts 280°
2026-05-09 22:03 33.55459 72.80872 1739 ft 15 kts 279°
2026-05-09 22:03 33.55469 72.80745 1736 ft 15 kts 264°
2026-05-09 22:03 33.55391 72.80682 1743 ft 15 kts 191°
2026-05-09 22:04 33.55291 72.80661 1739 ft 14 kts 190°
2026-05-09 22:04 33.55195 72.80640 1736 ft 11 kts 191°
2026-05-09 22:04 33.55135 72.80627 1739 ft 5 kts 181°
2026-05-09 22:04 33.55110 72.80661 1735 ft 6 kts 111°
2026-05-09 22:05 33.55103 72.80698 1742 ft 4 kts 102°
2026-05-09 22:05 33.55088 72.80788 1739 ft 24 kts 101°
2026-05-09 22:05 33.55017 72.81241 1740 ft 90 kts 101°
2026-05-09 22:05 33.54859 72.82242 1739 ft 153 kts 101°
2026-05-09 22:06 33.54626 72.83689 1830 ft 191 kts 101°
2026-05-09 22:06 33.54380 72.85296 2159 ft 203 kts 102°
2026-05-09 22:06 33.54116 72.86979 2685 ft 206 kts 101°
2026-05-09 22:06 33.53854 72.88651 3219 ft 209 kts 101°
2026-05-09 22:07 33.53574 72.90402 3523 ft 219 kts 105°
2026-05-09 22:07 33.52804 72.92002 3648 ft 232 kts 139°
2026-05-09 22:07 33.51519 72.93278 3824 ft 250 kts 141°
2026-05-09 22:07 33.50163 72.94652 4213 ft 262 kts 140°
2026-05-09 22:08 33.48748 72.96099 4663 ft 273 kts 140°
2026-05-09 22:08 33.47288 72.97597 5188 ft 280 kts 140°
2026-05-09 22:08 33.45794 72.99132 5786 ft 285 kts 140°
2026-05-09 22:08 33.44282 73.00684 6434 ft 288 kts 140°
2026-05-09 22:09 33.42752 73.02258 7037 ft 291 kts 139°
2026-05-09 22:09 33.41471 73.04117 7478 ft 295 kts 112°
2026-05-09 22:09 33.41094 73.06512 8018 ft 295 kts 83°
2026-05-09 22:09 33.41649 73.08845 8616 ft 294 kts 58°
2026-05-09 22:10 33.42970 73.10678 9183 ft 292 kts 32°
2026-05-09 22:10 33.44798 73.11685 9752 ft 290 kts
2026-05-09 22:10 33.46804 73.11953 10173 ft 294 kts
2026-05-09 22:10 33.48904 73.12141 10357 ft 313 kts
2026-05-09 22:11 33.51146 73.12352 10506 ft 333 kts
2026-05-09 22:11 33.53527 73.12592 10667 ft 353 kts
2026-05-09 22:11 33.56040 73.12839 10882 ft 370 kts
2026-05-09 22:11 33.58644 73.12875 11332 ft 378 kts 358°
2026-05-09 22:12 33.61296 73.12750 11900 ft 384 kts 356°
2026-05-09 22:12 33.63968 73.12581 12596 ft 387 kts 356°
2026-05-09 22:12 33.66666 73.12411 13280 ft 390 kts 356°
2026-05-09 22:12 33.69389 73.12252 13917 ft 393 kts 356°
2026-05-09 22:13 33.72140 73.12107 14500 ft 397 kts 357°
2026-05-09 22:13 33.74911 73.11973 15090 ft 401 kts 357°
2026-05-09 22:13 33.77672 73.11847 15677 ft 404 kts 357°
2026-05-09 22:13 33.80538 73.11719 16277 ft 408 kts 358°
2026-05-09 22:14 33.83385 73.11595 16865 ft 411 kts 358°
2026-05-09 22:14 33.86255 73.11472 17456 ft 415 kts 358°
2026-05-09 22:14 33.89156 73.11345 18049 ft 418 kts 358°
2026-05-09 22:14 33.92077 73.11218 18575 ft 422 kts 358°
2026-05-09 22:15 33.95018 73.11089 19084 ft 425 kts 358°
2026-05-09 22:15 33.97974 73.10959 19612 ft 427 kts 358°
2026-05-09 22:15 34.00920 73.10830 20067 ft 430 kts 357°
2026-05-09 22:15 34.03923 73.10698 20057 ft 434 kts 358°
2026-05-09 22:16 34.06972 73.10565 20063 ft 432 kts 358°
2026-05-09 22:16 34.09972 73.10433 20066 ft 430 kts 357°
2026-05-09 22:16 34.12954 73.10303 20082 ft 430 kts 357°
2026-05-09 22:16 34.15961 73.10170 20465 ft 435 kts 357°
2026-05-09 22:17 34.18957 73.10039 21078 ft 435 kts 357°
2026-05-09 22:17 34.21980 73.09906 21697 ft 436 kts 357°
2026-05-09 22:17 34.25022 73.09772 22217 ft 439 kts 357°
2026-05-09 22:17 34.28086 73.09636 22710 ft 443 kts 357°
2026-05-09 22:18 34.31177 73.09500 23215 ft 445 kts 357°
2026-05-09 22:18 34.34286 73.09363 23691 ft 448 kts 356°
2026-05-09 22:18 34.37408 73.09225 24114 ft 450 kts 356°
2026-05-09 22:18 34.40535 73.09087 24593 ft 451 kts 356°
2026-05-09 22:19 34.43680 73.08948 25057 ft 452 kts 356°
2026-05-09 22:19 34.46830 73.08809 25513 ft 454 kts 356°
2026-05-09 22:19 34.49988 73.08668 25950 ft 456 kts 356°
2026-05-09 22:19 34.53165 73.08528 26383 ft 457 kts 356°
2026-05-09 22:20 34.56344 73.08572 26679 ft 460 kts
2026-05-09 22:20 34.59463 73.09603 26935 ft 471 kts 21°
2026-05-09 22:20 34.62282 73.11641 27312 ft 475 kts 34°
2026-05-09 22:20 34.64900 73.14110 27660 ft 478 kts 35°
2026-05-09 22:21 34.67513 73.16593 28024 ft 481 kts 35°
2026-05-09 22:21 34.70179 73.19113 28382 ft 483 kts 34°
2026-05-09 22:21 34.72844 73.21617 28714 ft 485 kts 34°
2026-05-09 22:21 34.75526 73.24120 29072 ft 486 kts 34°
2026-05-09 22:22 34.78217 73.26617 29409 ft 488 kts 34°
2026-05-09 22:22 34.80931 73.29124 29668 ft 491 kts 34°
2026-05-09 22:22 34.83660 73.31642 29958 ft 493 kts 33°
2026-05-09 22:22 34.86395 73.34164 30333 ft 492 kts 33°
2026-05-09 22:23 34.89110 73.36675 30757 ft 489 kts 33°
2026-05-09 22:23 34.91819 73.39184 31145 ft 489 kts 33°
2026-05-09 22:23 34.94526 73.41693 31455 ft 489 kts 33°
2026-05-09 22:23 34.97230 73.44200 31833 ft 487 kts 33°
2026-05-09 22:24 34.99924 73.46701 32185 ft 486 kts 33°
2026-05-09 22:24 35.02616 73.49205 32509 ft 486 kts 33°
2026-05-09 22:24 35.05305 73.51706 32789 ft 486 kts 32°
2026-05-09 22:24 35.07983 73.54198 33183 ft 484 kts 32°
2026-05-09 22:25 35.13350 73.59201 33176 ft 483 kts 33°
2026-05-09 22:25 35.18698 73.64192 33143 ft 484 kts 32°
2026-05-09 22:26 35.24039 73.69184 33160 ft 483 kts 32°
2026-05-09 22:26 35.29343 73.74155 33143 ft 483 kts 33°
2026-05-09 22:27 35.34662 73.79142 33140 ft 481 kts 33°
2026-05-09 22:27 35.39985 73.84148 33118 ft 482 kts 33°
2026-05-09 22:28 35.45306 73.89160 33119 ft 481 kts 33°
2026-05-09 22:28 35.50614 73.94165 33108 ft 481 kts 33°
2026-05-09 22:29 35.55901 73.99161 33080 ft 479 kts 33°
2026-05-09 22:29 35.61163 74.04142 33125 ft 476 kts 33°
2026-05-09 22:30 35.66385 74.09092 33124 ft 475 kts 33°
2026-05-09 22:30 35.71621 74.14061 33123 ft 476 kts 33°
2026-05-09 22:31 35.76864 74.19049 33142 ft 477 kts 33°
2026-05-09 22:31 35.81228 74.23208 33147 ft 477 kts 33°
2026-05-09 22:32 35.86474 74.28215 33170 ft 477 kts 33°
2026-05-09 22:32 35.91719 74.33227 33156 ft 477 kts 33°
2026-05-09 22:33 35.96813 74.38331 33154 ft 475 kts 36°
2026-05-09 22:33 36.01834 74.43593 33173 ft 472 kts 36°
2026-05-09 22:34 36.06843 74.48832 33187 ft 472 kts 36°
2026-05-09 22:34 36.11868 74.54063 33200 ft 473 kts 36°
2026-05-09 22:35 36.16897 74.59287 33243 ft 472 kts 36°
2026-05-09 22:35 36.21928 74.64519 33257 ft 473 kts 36°
2026-05-09 22:36 36.26965 74.69770 33266 ft 474 kts 36°
2026-05-09 22:36 36.32007 74.75041 33254 ft 473 kts 36°
2026-05-09 22:37 36.37018 74.80278 33290 ft 471 kts 36°
2026-05-09 22:37 36.42018 74.85530 33295 ft 471 kts 36°
2026-05-09 22:38 36.47013 74.90777 33302 ft 472 kts 36°
2026-05-09 22:39 36.54545 74.98704 33300 ft 471 kts 36°
2026-05-09 22:39 36.59537 75.03971 33307 ft 469 kts 36°
2026-05-09 22:40 36.64527 75.09241 33194 ft 474 kts 36°
2026-05-09 22:40 36.67048 75.11907 33304 ft 478 kts 36°
2026-05-09 22:40 36.72173 75.17336 33291 ft 488 kts 36°
2026-05-09 22:41 36.77366 75.22856 33334 ft 494 kts 36°
2026-05-09 22:41 36.82624 75.28443 33308 ft 498 kts 36°
2026-05-09 22:42 36.87895 75.34064 33277 ft 498 kts 36°
2026-05-09 22:42 36.92682 75.40247 33287 ft 503 kts 56°
2026-05-09 22:43 36.94116 75.44248 33288 ft 509 kts 70°
2026-05-09 22:43 36.94742 75.48615 33248 ft 513 kts 85°
2026-05-09 22:43 36.94952 75.57520 33265 ft 514 kts 85°
2026-05-09 22:44 36.95207 75.66485 33251 ft 518 kts 85°
2026-05-09 22:44 36.95521 75.75450 33256 ft 521 kts 84°
2026-05-09 22:45 36.95858 75.84505 33236 ft 522 kts 84°
2026-05-09 22:45 36.96191 75.93571 33224 ft 521 kts 84°
2026-05-09 22:46 36.96511 76.02615 33220 ft 520 kts 84°
2026-05-09 22:47 36.96972 76.16135 33193 ft 517 kts 84°
2026-05-09 22:47 36.97273 76.25111 33191 ft 516 kts 84°
2026-05-09 22:48 36.97565 76.34077 33180 ft 516 kts 84°
2026-05-09 22:48 36.97851 76.43043 33169 ft 516 kts 84°
2026-05-09 22:49 36.98130 76.52008 33154 ft 515 kts 84°
2026-05-09 22:49 36.98400 76.60933 33142 ft 513 kts 84°
2026-05-09 22:50 36.98662 76.69856 33101 ft 512 kts 84°
2026-05-09 22:50 36.98922 76.78731 33107 ft 511 kts 84°
2026-05-09 22:51 36.99171 76.87626 33095 ft 512 kts 84°
2026-05-09 22:51 36.99410 76.96536 33078 ft 513 kts 84°
2026-05-09 22:52 36.99646 77.05422 33075 ft 512 kts 84°
2026-05-09 22:52 36.99879 77.14351 33076 ft 512 kts 84°
2026-05-09 22:53 37.00103 77.23213 33078 ft 514 kts 84°
2026-05-09 22:53 37.00322 77.32138 33065 ft 513 kts 84°
2026-05-09 22:54 37.00532 77.41043 33067 ft 511 kts 85°
2026-05-09 22:54 37.00731 77.49916 33066 ft 510 kts 85°
2026-05-09 22:55 37.00926 77.58775 33063 ft 510 kts 85°
2026-05-09 22:55 37.01116 77.67632 33058 ft 509 kts 85°
2026-05-09 22:56 37.01299 77.76482 33050 ft 509 kts 85°
2026-05-09 22:56 37.01474 77.85325 33050 ft 509 kts 85°
2026-05-09 22:57 37.01647 77.94171 33028 ft 508 kts 85°
2026-05-09 22:57 37.01807 78.02988 33014 ft 506 kts 85°
2026-05-09 22:58 37.01905 78.11765 33069 ft 503 kts 85°
2026-05-09 22:58 37.02073 78.20551 33001 ft 506 kts 84°
2026-05-09 22:59 37.02266 78.29329 33004 ft 505 kts 84°
2026-05-09 22:59 37.02406 78.38149 32995 ft 507 kts 85°
2026-05-09 23:00 37.02527 78.46983 32973 ft 508 kts 85°
2026-05-09 23:00 37.02638 78.55803 32967 ft 506 kts 85°
2026-05-09 23:01 37.02753 78.64593 32960 ft 504 kts 84°
2026-05-09 23:01 37.02863 78.73303 32952 ft 504 kts 84°
2026-05-09 23:02 37.02968 78.82071 32938 ft 504 kts 84°
2026-05-09 23:02 37.03063 78.90835 32939 ft 503 kts 84°
2026-05-09 23:03 37.03154 78.99607 32918 ft 504 kts 85°
2026-05-09 23:03 37.03239 79.08371 32906 ft 504 kts 85°
2026-05-09 23:04 37.03316 79.17132 32920 ft 503 kts 85°
2026-05-09 23:04 37.03386 79.25878 32898 ft 503 kts 85°
2026-05-09 23:05 37.03450 79.34623 32897 ft 502 kts 85°
2026-05-09 23:05 37.03508 79.43353 32889 ft 501 kts 85°
2026-05-09 23:06 37.03559 79.52061 32878 ft 500 kts 85°
2026-05-09 23:06 37.03603 79.60762 32884 ft 499 kts 85°
2026-05-09 23:07 37.03642 79.69448 32879 ft 499 kts 85°
2026-05-09 23:07 37.03675 79.78119 32898 ft 498 kts 85°
2026-05-09 23:08 37.03972 79.86733 32891 ft 492 kts 77°
2026-05-09 23:08 37.05395 79.95022 32889 ft 485 kts 69°
2026-05-09 23:09 37.07224 80.03146 32889 ft 485 kts 69°
2026-05-09 23:09 37.09038 80.11283 32888 ft 485 kts 69°
2026-05-09 23:10 37.10819 80.19437 32880 ft 485 kts 70°